[[{"header":{"parameterUnit":"m.s-1","parameterCategory":1,"la1":30.2991,"la2":30.254,"lo1":-89.0895,"lo2":-89.0444,"dy":0.0017,"dx":0.0017,"nx":28,"ny":28,"refTime":"2024-03-01T09:00:00:Z","depth":0,"parameterNumber":2,"parameterNumberName":"U-component_of_WINDS"},"data":[0,0,0,0,0,0,0,0,0,0,0,0,0,0,0,0,0,0,0,0,0,0,0,0,0,0,0,0,0,0,0,0,0,0,0,0,0,0,0,0,0,0,0,0,0,0,0,0,0,0,0,0,0,0,0,0,0,0,-2.0951,-2.0953,0,-2.1125,-2.1127,-2.1129,-2.1244,-2.1245,-2.1245,-2.1246,-2.142,-2.1424,-2.1427,0,0,0,0,0,0,0,0,0,0,0,0,0,-2.0714,-2.0718,-2.0951,-2.0953,-2.0956,-2.1125,-2.1127,-2.113,-2.1244,-2.1245,-2.1246,-2.1246,-2.1418,-2.1423,-2.1428,0,0,0,0,0,0,0,0,0,0,0,0,0,-2.0845,-2.0719,-2.0951,-2.1033,-2.1042,-2.1125,-2.1128,-2.113,-2.1243,-2.1245,-2.1246,-2.1247,-2.1417,-2.1423,-2.1428,-2.1442,0,0,-2.1446,-2.1449,0,0,0,0,0,0,0,0,-2.0838,-2.0854,-2.1019,-2.1027,-2.1038,-2.1164,-2.1108,-2.1235,-2.1243,-2.1167,-2.1246,-2.1247,-2.1333,-2.1346,-2.1376,-2.145,-2.1457,-2.1447,-2.145,-2.1453,-2.1455,0,0,0,0,0,0,0,-2.0829,-2.0847,-2.102,-2.1021,-2.1033,-2.106,-2.108,-2.1132,-2.1241,-2.1174,-2.1182,-2.1202,-2.1339,-2.137,-2.1381,-2.146,-2.1447,-2.1452,-2.1456,-2.1458,-2.1555,-2.1554,0,0,0,0,0,0,-2.0807,-2.0839,-2.1014,-2.1025,-2.0939,-2.1063,-2.1086,-2.1122,-2.1241,-2.1261,-2.12,-2.1206,-2.136,-2.1374,-2.1388,-2.1411,-2.1453,-2.1458,-2.1462,-2.1556,-2.1555,-2.1554,0,0,0,0,0,0,-2.0802,-2.0822,-2.1007,-2.0935,-2.096,-2.1066,-2.1106,-2.1125,-2.1157,-2.1262,-2.1281,-2.1213,-2.1361,-2.1379,-2.1428,-2.1419,-2.1461,-2.1466,-2.1557,-2.1555,-2.1554,-2.1458,0,0,0,0,0,0,-2.0794,-2.0819,-2.0825,-2.0934,-2.0964,-2.1045,-2.1106,-2.1128,-2.1167,-2.1176,-2.1278,-2.1296,-2.1364,-2.1419,-2.1434,-2.1428,-2.1471,-2.1558,-2.1556,-2.1555,-2.1462,-2.1453,-2.1445,0,0,0,0,0,-2.0786,-2.079,-2.0825,-2.0846,-2.0974,-2.1044,-2.1061,-2.114,-2.1166,-2.1173,-2.1241,-2.1293,-2.1418,-2.1423,-2.1441,-2.1436,-2.1559,-2.1557,-2.1555,-2.1466,-2.1455,-2.1446,0,0,0,0,0,0,-2.0675,-2.0805,-2.0846,-2.0886,-2.0953,-2.1063,-2.1074,-2.1126,-2.1186,-2.1191,-2.1286,-2.1308,-2.1347,-2.1397,-2.14,-2.1456,-2.1495,-2.1496,-2.1421,-2.1412,-2.1403,-2.1389,-2.1476,0,0,0,0,0,-2.0656,-2.0703,-2.0814,-2.0839,-2.0871,-2.0967,-2.1,-2.1055,-2.1128,-2.1157,-2.1228,-2.1296,-2.1351,-2.1385,-2.1441,-2.1472,-2.1495,-2.1478,-2.1469,-2.1462,-2.1461,-2.1481,-2.1475,-2.1547,-2.1547,-2.1547,0,0,-2.0615,-2.0693,-2.0716,-2.0818,-2.0877,-2.0923,-2.0989,-2.1035,-2.1069,-2.1163,-2.1213,-2.1269,-2.1351,-2.139,-2.1411,-2.1433,-2.1447,-2.1459,-2.1452,-2.1456,-2.1478,-2.1471,-2.1465,-2.1545,-2.1545,-2.1546,0,0,-2.0564,-2.0628,-2.0656,-2.0714,-2.0804,-2.0868,-2.0875,-2.0978,-2.1019,-2.1072,-2.1143,-2.1186,-2.1279,-2.1335,-2.1375,-2.135,-2.14,-2.1366,-2.132,-2.1339,-2.1334,-2.1329,-2.1319,-2.1314,-2.1365,-2.1365,-2.1365,0,-2.0501,-2.0574,-2.0663,-2.0705,-2.0747,-2.0838,-2.0866,-2.0918,-2.102,-2.1047,-2.1072,-2.1192,-2.1253,-2.1307,-2.1302,-2.1332,-2.1342,-2.1352,-2.1328,-2.1324,-2.1321,-2.1312,-2.1308,-2.136,-2.1361,-2.1361,-2.1361,0,-2.0493,-2.0542,-2.0554,-2.0652,-2.0697,-2.0731,-2.0825,-2.086,-2.0912,-2.0974,-2.1027,-2.1106,-2.118,-2.1198,-2.1248,-2.126,-2.1271,-2.131,-2.135,-2.1308,-2.1301,-2.1299,-2.1353,-2.1355,-2.1356,-2.1357,0,0,-2.0371,-2.0522,-2.0524,-2.0571,-2.0678,-2.0718,-2.0757,-2.0832,-2.0859,-2.0929,-2.0963,-2.1042,-2.108,-2.1126,-2.1185,-2.1202,-2.1176,-2.124,-2.1243,-2.1223,-2.1193,-2.116,-2.1154,-2.1212,-2.1212,-2.1212,-2.1185,0,-2.0334,-2.041,-2.0493,-2.054,-2.0586,-2.0676,-2.0711,-2.078,-2.084,-2.0888,-2.0955,-2.1008,-2.1055,-2.1084,-2.1105,-2.1174,-2.1171,-2.1178,-2.1243,-2.1245,-2.1216,-2.1151,-2.1116,-2.1087,-2.1184,-2.1183,-2.1183,0,-2.03,-2.0366,-2.0418,-2.0523,-2.0546,-2.0575,-2.0652,-2.0697,-2.0779,-2.0821,-2.0875,-2.0939,-2.0985,-2.1023,-2.1088,-2.1091,-2.1124,-2.1162,-2.1163,-2.1169,-2.1208,-2.1153,-2.108,-2.1074,-2.118,-2.118,-2.118,0,-2.0203,-2.0306,-2.0351,-2.0388,-2.0513,-2.0531,-2.0584,-2.0667,-2.0707,-2.0774,-2.0801,-2.0872,-2.091,-2.0964,-2.1045,-2.1066,-2.1102,-2.1146,-2.1137,-2.1135,-2.1136,-2.1134,-2.1064,-2.1163,-2.1163,-2.1163,-2.1163,0,-2.015,-2.0178,-2.0309,-2.0336,-2.037,-2.0466,-2.0497,-2.0558,-2.0632,-2.0672,-2.0755,-2.079,-2.0898,-2.0946,-2.1011,-2.1055,-2.1072,-2.1107,-2.1123,-2.1097,-2.1092,-2.1117,-2.112,-2.1162,-2.1162,-2.1162,-2.1162,0,-2.0045,-2.0135,-2.0189,-2.0305,-2.0334,-2.0354,-2.0452,-2.0482,-2.0549,-2.0599,-2.0616,-2.0721,-2.0783,-2.0872,-2.096,-2.1004,-2.1037,-2.1065,-2.1009,-2.1018,-2.1003,-2.1002,-2.0943,-2.094,-2.1042,-2.1041,-2.1041,0,-2.0004,-2.0027,-2.0146,-2.018,-2.023,-2.0284,-2.0326,-2.0423,-2.0464,-2.0561,-2.0579,-2.0648,-2.0708,-2.0803,-2.0887,-2.0956,-2.0984,-2.0959,-2.0994,-2.0969,-2.0981,-2.0977,-2.098,-2.0949,-2.0947,-2.0946,-2.0945,0,-1.9919,-1.9964,-2.0022,-2.0098,-2.0147,-2.021,-2.0278,-2.0301,-2.0412,-2.0454,-2.052,-2.0567,-2.066,-2.0727,-2.0808,-2.0862,-2.0921,-2.0934,-2.0935,-2.0907,-2.0872,-2.0889,-2.0982,-2.0933,-2.0935,-2.0935,-2.0936,-2.0937,-1.9843,-1.9869,-1.9957,-2.002,-2.0082,-2.0144,-2.0178,-2.0251,-2.0308,-2.0392,-2.0447,-2.0509,-2.0594,-2.0709,-2.0761,-2.0812,-2.0836,-2.0838,-2.0838,-2.0835,-2.0826,-2.0868,-2.0827,-2.0828,-2.0828,-2.0829,-2.0829,0,-1.976,-1.9823,-1.9881,-1.9974,-2.0024,-2.008,-2.0159,-2.0196,-2.0251,-2.0326,-2.0384,-2.0461,-2.0528,-2.0619,-2.0693,-2.0716,-2.0745,-2.0732,-2.0729,-2.074,-2.0801,-2.0791,-2.0707,-2.0707,-2.0707,-2.0707,-2.0707,-2.0707,-1.9723,-1.9769,-1.9824,-1.9903,-1.9966,-2.0029,-2.0069,-2.0127,-2.0187,-2.0269,-2.0326,-2.0386,-2.0468,-2.0549,-2.0614,-2.0639,-2.0661,-2.0638,-2.0671,-2.0725,-2.0736,-2.0746,-2.0738,-2.0643,-2.0643,-2.0607,-2.0606,-2.0606]},{"header":{"parameterUnit":"m.s-1","parameterCategory":1,"la1":30.2991,"la2":30.254,"lo1":-89.0895,"lo2":-89.0444,"dy":0.0017,"dx":0.0017,"nx":28,"ny":28,"refTime":"2024-03-01T09:00:00:Z","depth":0,"parameterNumber":3,"parameterNumberName":"V-component_of_WINDS"},"data":[0,0,0,0,0,0,0,0,0,0,0,0,0,0,0,0,0,0,0,0,0,0,0,0,0,0,0,0,0,0,0,0,0,0,0,0,0,0,0,0,0,0,0,0,0,0,0,0,0,0,0,0,0,0,0,0,0,0,4.677,4.677,0,4.6811,4.6811,4.6812,4.6747,4.6744,4.6742,4.674,4.6776,4.6779,4.6782,0,0,0,0,0,0,0,0,0,0,0,0,0,4.6627,4.663,4.6769,4.677,4.6771,4.6811,4.6811,4.6812,4.6747,4.6744,4.6742,4.6739,4.6775,4.6779,4.6783,0,0,0,0,0,0,0,0,0,0,0,0,0,4.668,4.6631,4.6769,4.6743,4.6741,4.6811,4.6811,4.6812,4.6748,4.6744,4.6741,4.6738,4.6774,4.6779,4.6783,4.6878,0,0,4.6797,4.6799,0,0,0,0,0,0,0,0,4.6678,4.6686,4.6747,4.6745,4.6743,4.677,4.6774,4.6834,4.6748,4.6745,4.674,4.6736,4.6777,4.6781,4.6796,4.688,4.6881,4.6797,4.68,4.6802,4.6804,0,0,0,0,0,0,0,4.6674,4.6684,4.6786,4.6747,4.6745,4.6727,4.6731,4.6785,4.6779,4.6745,4.674,4.6746,4.6775,4.6791,4.6796,4.6882,4.6797,4.6801,4.6804,4.6806,4.7042,4.7045,0,0,0,0,0,0,4.6674,4.6681,4.6784,4.6787,4.6702,4.6732,4.6736,4.6765,4.6778,4.6777,4.6749,4.6743,4.6785,4.6791,4.6797,4.6906,4.6802,4.6806,4.6809,4.7038,4.7043,4.7046,0,0,0,0,0,0,4.6672,4.6684,4.6783,4.6733,4.6744,4.6738,4.677,4.6767,4.6784,4.6781,4.6779,4.6768,4.6783,4.6791,4.6858,4.6907,4.6809,4.6813,4.7034,4.704,4.7045,4.7127,0,0,0,0,0,0,4.6668,4.6684,4.6722,4.6734,4.6747,4.6845,4.6774,4.6771,4.6792,4.6785,4.6798,4.6797,4.6781,4.6852,4.6863,4.6911,4.6816,4.703,4.7037,4.7043,4.712,4.7135,4.7147,0,0,0,0,0,4.6663,4.6743,4.6724,4.6737,4.6795,4.6848,4.6855,4.6837,4.6797,4.6833,4.6831,4.6797,4.69,4.6859,4.6871,4.6922,4.7027,4.7035,4.7042,4.7114,4.7132,4.7147,0,0,0,0,0,0,4.6735,4.6744,4.6723,4.681,4.6829,4.6837,4.6883,4.6857,4.6886,4.6878,4.6851,4.6855,4.6927,4.6931,4.6885,4.7012,4.6956,4.6967,4.7007,4.7024,4.7037,4.7033,4.682,0,0,0,0,0,4.6761,4.6806,4.6811,4.6887,4.6898,4.6889,4.6912,4.6896,4.6914,4.6921,4.6924,4.6941,4.6976,4.7001,4.7034,4.7121,4.7121,4.7162,4.7175,4.7186,4.7195,4.7238,4.7255,4.7073,4.7072,4.7072,0,0,4.6815,4.6826,4.6856,4.6902,4.6915,4.6959,4.6896,4.6947,4.6978,4.6928,4.6991,4.6994,4.7011,4.7088,4.7122,4.7094,4.7246,4.7197,4.7205,4.7208,4.7248,4.7265,4.7281,4.7078,4.7077,4.7076,0,0,4.6936,4.695,4.7013,4.7028,4.7048,4.7041,4.7057,4.7069,4.7069,4.7133,4.7095,4.7131,4.7195,4.7207,4.7222,4.7345,4.7313,4.7357,4.7427,4.7469,4.7484,4.7496,4.7537,4.7553,4.7366,4.7366,4.7366,0,4.7,4.7068,4.7049,4.7102,4.7121,4.7079,4.7141,4.7155,4.7184,4.7198,4.7166,4.7243,4.7252,4.7329,4.736,4.7374,4.7388,4.7354,4.7484,4.7496,4.7507,4.7546,4.7562,4.7371,4.7371,4.737,4.737,0,4.7143,4.7191,4.7239,4.727,4.7295,4.7352,4.7339,4.7367,4.7348,4.7344,4.7407,4.7416,4.7449,4.7467,4.7449,4.7541,4.7523,4.7488,4.7431,4.753,4.7566,4.7581,4.7378,4.7377,4.7375,4.7374,0,0,4.731,4.7329,4.7347,4.7359,4.7378,4.7412,4.7466,4.75,4.7522,4.7544,4.7586,4.764,4.7607,4.7624,4.7607,4.7645,4.7738,4.7605,4.7605,4.7627,4.7837,4.7861,4.7879,4.7718,4.7721,4.7723,4.7834,0,4.7428,4.7522,4.7506,4.7596,4.7638,4.7597,4.7644,4.7659,4.7656,4.7689,4.7685,4.7722,4.7678,4.7687,4.7723,4.772,4.7779,4.7712,4.7754,4.7756,4.7749,4.7898,4.7924,4.8028,4.7848,4.7851,4.7853,0,4.7578,4.7606,4.7701,4.771,4.7727,4.7769,4.7797,4.783,4.7845,4.784,4.7859,4.7834,4.7884,4.7828,4.7896,4.785,4.7866,4.7867,4.787,4.7871,4.7809,4.79,4.8062,4.8076,4.7875,4.7873,4.7872,0,4.7686,4.7747,4.7811,4.7823,4.7837,4.7867,4.7874,4.7886,4.7906,4.793,4.7942,4.7971,4.7987,4.8009,4.7992,4.7953,4.8061,4.8004,4.8055,4.8056,4.8078,4.8076,4.8242,4.8093,4.8093,4.8093,4.8092,0,4.7817,4.7876,4.7859,4.7898,4.7962,4.7941,4.8004,4.8006,4.8017,4.8053,4.8021,4.8055,4.8032,4.8064,4.8051,4.8107,4.8115,4.811,4.8105,4.8112,4.8112,4.812,4.8111,4.8097,4.8096,4.8095,4.8094,0,4.7948,4.7939,4.8006,4.8014,4.8017,4.8063,4.8068,4.8103,4.8098,4.8144,4.8154,4.8145,4.8181,4.8167,4.8205,4.8196,4.8267,4.8254,4.8262,4.8257,4.8309,4.8303,4.8483,4.8504,4.8345,4.8347,4.8348,0,4.8031,4.8075,4.8088,4.811,4.812,4.8157,4.8178,4.8159,4.8181,4.8201,4.8233,4.8266,4.8291,4.835,4.8345,4.8374,4.8359,4.842,4.8363,4.8367,4.8357,4.8353,4.8356,4.8431,4.8433,4.8434,4.8436,0,4.8178,4.8171,4.8203,4.8233,4.8259,4.8281,4.8301,4.8321,4.8302,4.8329,4.8365,4.8385,4.8424,4.8456,4.8481,4.8485,4.8457,4.8454,4.8467,4.8472,4.8474,4.8471,4.829,4.8449,4.8448,4.8447,4.8446,4.8446,4.8285,4.8322,4.8336,4.8371,4.8384,4.8402,4.8435,4.8434,4.8465,4.8495,4.8482,4.8524,4.8535,4.8566,4.8574,4.8605,4.8581,4.86,4.8604,4.8609,4.8614,4.8472,4.861,4.8609,4.8609,4.8608,4.8608,0,4.8428,4.8435,4.8468,4.8496,4.8524,4.8497,4.8516,4.854,4.8577,4.8592,4.8617,4.8658,4.8689,4.8687,4.8715,4.874,4.8727,4.8748,4.8744,4.8745,4.8636,4.862,4.8757,4.8757,4.8757,4.8757,4.8757,4.8757,4.8505,4.8564,4.8559,4.8623,4.8629,4.8671,4.8684,4.8699,4.871,4.8758,4.8784,4.8783,4.879,4.8818,4.8844,4.8842,4.8853,4.8878,4.8871,4.8768,4.8753,4.8739,4.8724,4.8881,4.8881,4.8978,4.8978,4.8979]}]]